Location: Coed Ely
(51.5661°N, 3.4150°W)
Time: 02:06:29
(UTC+00:00)

USA 234 - Pass Details

Date: 28 January 2021
Orbit: 1100 x 1107 km, 123.0° (Epoch: 26 February)

Event Time Altitude Azimuth Distance (km) Brightness Sun altitude
Exits shadow 18:05:50 13° 68° (ENE) 2,723 4.7 -10.8°
Maximum altitude 18:11:34 58° 353° (N) 1,276 3.6 -11.7°
Drops below altitude 10° 18:17:57 10° 277° (W) 2,966 6.8 -12.7°
Sets 18:20:28 0° 273° (W) 3,925 7.8 -13.1°
